Terminal Aerodrome Forecast
Issued by NWS Upton, NY

Home | Current Version | Previous Version | Text Only | Print | Product List | Glossary On
Versions: 1 2 3 4 5 6 7 8 9 10 11 12 13 14 15 16 17 18 19 20 21 22 23 24 25 26 27 28 29 30 31 32 33 34 35 36 37 38 39 40 41 42
000
FTUS41 KOKX 240707 AAB
TAFEWR
TAF AMD
KEWR 240707Z 2407/2512 24013KT P6SM VCTS SCT025CB BKN040 BKN050
     FM240830 24010KT 5SM +SHRA BR SCT025 BKN050
      TEMPO 2410/2414 29017G35KT 2SM TSRA BR BKN012CB OVC020
     FM241400 29014G22KT P6SM SCT050
     FM242300 28012KT P6SM FEW050
     FM250900 30004KT P6SM SCT070=

USA.gov is the U.S. government's official web portal to all federal, state and local government web resources and services.